Redmond, OR

6:47 PM PDT on October 21, 2019 (GMT -0700)
Roberts Field Airport

Weather History for KRDM - July, 2019

Change the Weather History Date:

Wednesday, July 24, 2019

  Actual Average Record
Temperature  
Mean Temperature 64 °F 67 °F  
Max Temperature 84 °F 88 °F 101 °F (2004)
Min Temperature 46 °F 47 °F 33 °F (2014)
Degree Days  
Heating Degree Days 1 1  
Month to date heating degree days 61  
Since 1 June heating degree days 278  
Since 1 July heating degree days 61  
Cooling Degree Days 0 4  
Month to date cooling degree days 72  
Year to date cooling degree days 101  
Since 1 June cooling degree days 96  
Growing Degree Days 14 (Base 50)    
Moisture  
Dew Point 35 °F    
Average Humidity 37    
Maximum Humidity 77    
Minimum Humidity 10    
Precipitation  
Precipitation 0.00 in 0.02 in 0.85 in (1987)
Month to date precipitation 0.43  
Year to date precipitation 5.11  
Sea Level Pressure  
Sea Level Pressure 30.16 in    
Wind  
Wind Speed 5 mph (NNW)    
Max Wind Speed 12 mph    
Max Gust Speed 17 mph    
Visibility 10 miles    
Events      
T = Trace of Precipitation, MM = Missing Value Source: NWS Daily Summary

Daily Weather History Graph

Daily Weather History Graph

Search for Another Location

Airport or City:

Astronomy

Jul. 24, 2019 Rise Set
Actual Time 5:43 AM PDT 8:38 PM PDT
Civil Twilight 5:09 AM PDT 9:12 PM PDT
Nautical Twilight 4:25 AM PDT 9:55 PM PDT
Astronomical Twilight 3:34 AM PDT 10:46 PM PDT
Moon 12:14 AM PDT (7/24) 1:15 PM PDT (7/24)
Length of Visible Light 16h 02m
Length of Day
14h 54m
Waning Gibbous, 53% of the Moon is Illuminated
Jul 24
Waning Gibbous
Jul 24
Last Quarter
Jul 31
New
Aug 7
First Quarter
Aug 15
Full

Hourly Weather History & Observations

Time (PDT) Temp. Dew Point Humidity Pressure Visibility Wind Dir Wind Speed Gust Speed Precip Events Conditions
12:56 AM 59.0 °F 45.0 °F 60% 30.10 in 10.0 mi NW 8.1 mph - N/A   Clear
1:56 AM 55.9 °F 45.0 °F 67% 30.12 in 10.0 mi NNW 4.6 mph - N/A   Clear
2:56 AM 53.1 °F 44.1 °F 71% 30.14 in 10.0 mi Calm Calm - N/A   Clear
3:56 AM 51.1 °F 43.0 °F 74% 30.17 in 10.0 mi Calm Calm - N/A   Clear
4:56 AM 50.0 °F 42.1 °F 74% 30.19 in 10.0 mi Calm Calm - N/A   Clear
5:56 AM 46.9 °F 39.9 °F 77% 30.22 in 10.0 mi West 3.5 mph - N/A   Clear
6:56 AM 52.0 °F 43.0 °F 71% 30.24 in 10.0 mi Calm Calm - N/A   Clear
7:56 AM 57.9 °F 43.0 °F 58% 30.25 in 10.0 mi Variable 3.5 mph - N/A   Clear
8:56 AM 62.1 °F 43.0 °F 50% 30.26 in 10.0 mi Calm Calm - N/A   Clear
9:56 AM 64.9 °F 41.0 °F 42% 30.25 in 10.0 mi Variable 3.5 mph - N/A   Clear
10:56 AM 68.0 °F 37.9 °F 33% 30.24 in 10.0 mi Variable 3.5 mph - N/A   Clear
11:56 AM 73.0 °F 35.1 °F 25% 30.21 in 10.0 mi SSE 4.6 mph - N/A   Clear
12:56 PM 77.0 °F 34.0 °F 21% 30.18 in 10.0 mi Variable 3.5 mph - N/A   Clear
1:56 PM 78.1 °F 33.1 °F 19% 30.17 in 10.0 mi North 4.6 mph - N/A   Clear
2:56 PM 81.0 °F 27.0 °F 14% 30.15 in 10.0 mi North - - N/A   Clear
3:32 PM 82.0 °F 24.1 °F 12% 30.20 in 10.0 mi NNW 8.1 mph 17.3 mph N/A   Clear
3:56 PM 82.9 °F 21.9 °F 11% 30.13 in 10.0 mi NNW 9.2 mph - N/A   Clear
4:56 PM 82.9 °F 33.1 °F 17% 30.11 in 10.0 mi North 11.5 mph - N/A   Clear
5:56 PM 82.9 °F 27.0 °F 13% 30.10 in 10.0 mi NNW 10.4 mph - N/A   Clear
6:56 PM 82.0 °F 21.0 °F 10% 30.08 in 10.0 mi NNW 10.4 mph - N/A   Clear
7:56 PM 78.1 °F 27.0 °F 15% 30.08 in 10.0 mi NNW 8.1 mph - N/A   Clear
8:56 PM 72.0 °F 28.0 °F 20% 30.09 in 10.0 mi NNW 6.9 mph - N/A   Clear
9:56 PM 64.9 °F 26.1 °F 23% 30.10 in 10.0 mi NNW 4.6 mph - N/A   Clear
10:56 PM 66.0 °F 28.0 °F 24% 30.10 in 10.0 mi NNW 3.5 mph - N/A   Clear
11:56 PM 64.9 °F 32.0 °F 29% 30.11 in 10.0 mi WNW 6.9 mph - N/A   Clear